Lid_Strength_Index
-0 -0 -0 -0 -0 0 0 0 0 -0 -0 -0 -0 -1 -1 -0 1 6 8 5 4 -1 0 6 8 8 8 8 8 10 13 15 15 14 13 12 12 12 12 13 14 13 14 13 12
-0 0 0 0 0 0 0 0 0 -0 -0 -0 -0 -1 -0 0 6 8 2 0 -2 -1 7 8 9 9 10 10 10 12 14 13 13 13 13 12 12 13 13 15 15 15 14 13 13
1 0 0 0 0 0 0 0 0 0 -0 0 -0 -0 -0 2 8 8 -0 -1 -1 0 7 8 8 9 11 10 12 13 14 12 12 11 11 12 13 13 14 15 15 15 15 15 15
1 1 1 1 1 0 0 1 0 0 0 0 -0 -0 1 5 13 7 -1 -1 -0 5 7 8 9 11 12 12 11 13 12 11 10 10 11 12 12 14 14 14 13 14 14 15 15
2 2 1 1 1 0 0 1 0 0 0 0 -0 -0 5 9 10 6 2 3 7 7 8 9 10 11 13 12 11 13 12 11 11 11 12 12 13 13 14 15 14 14 15 16 16
2 2 1 1 1 0 0 1 0 0 0 0 -0 0 5 10 6 6 7 7 7 8 9 9 10 10 11 11 12 12 12 12 11 11 12 12 14 14 14 15 15 15 16 16 16
1 2 1 1 1 0 0 1 1 0 0 -0 -1 3 7 8 6 7 7 8 8 8 9 9 9 10 10 12 11 12 13 12 12 12 12 12 14 14 14 15 16 16 16 16 16
1 2 1 1 1 1 1 1 1 0 -0 -0 -0 5 9 6 6 6 8 8 8 8 8 9 9 9 11 11 11 13 14 15 13 12 13 13 15 13 14 15 16 16 17 16 16
2 2 1 1 1 1 1 1 1 0 -0 -0 4 7 10 4 7 6 8 9 8 8 9 8 9 11 11 13 15 15 16 16 14 12 13 14 16 14 15 15 16 17 17 17 17
2 2 1 1 1 1 1 1 1 2 2 4 5 8 8 8 7 7 8 8 9 9 9 10 12 13 14 14 16 16 17 17 17 15 14 15 15 13 15 15 15 17 18 18 19
2 1 1 1 1 1 3 7 8 10 8 10 11 9 8 6 7 8 8 9 9 10 12 11 13 15 13 13 14 16 17 17 16 14 15 15 14 13 14 16 17 18 18 18 19
2 1 1 1 1 1 7 10 9 9 11 10 10 9 7 7 10 8 9 10 11 12 12 13 14 13 13 13 14 16 17 17 15 15 15 16 16 13 15 15 15 16 18 18 19
2 2 1 2 2 6 9 9 6 8 12 11 9 8 8 8 9 10 9 11 12 13 13 14 13 12 14 15 15 16 17 17 17 16 16 18 20 16 15 15 15 15 16 17 18
2 2 2 2 6 8 9 7 7 8 16 14 11 9 9 9 11 9 10 11 12 12 13 14 13 14 15 15 15 17 15 16 16 18 20 18 21 20 17 16 16 16 19 18 19
2 2 2 3 8 10 8 7 8 11 22 14 11 8 9 11 11 11 10 11 12 12 13 13 15 15 15 15 14 15 15 17 17 18 20 20 21 20 20 18 16 18 18 18 18
3 2 3 5 9 9 7 9 10 16 21 15 11 12 12 12 12 11 12 11 12 13 15 13 14 15 14 14 14 14 16 17 19 20 23 20 20 22 20 18 18 18 18 18 19
2 1 4 7 8 8 8 10 16 20 15 15 13 12 13 13 13 12 13 14 13 15 16 15 15 15 14 15 14 15 17 20 22 23 22 21 23 18 16 16 17 17 18 19 19
2 2 4 6 7 8 10 13 20 17 16 13 12 13 13 12 13 13 14 15 13 14 17 16 17 15 14 15 15 16 16 19 23 24 20 22 22 18 17 18 19 18 18 19 19
4 5 6 7 7 7 12 18 16 15 14 13 13 15 15 13 13 14 15 15 13 13 14 17 17 16 15 15 15 17 18 16 19 30 27 21 20 18 20 19 20 19 20 20 20
6 7 8 8 8 9 16 15 15 13 12 12 14 13 15 14 14 15 15 14 13 12 12 13 16 17 17 17 17 17 16 20 20 26 28 22 21 18 18 19 21 21 21 20 20
4 9 9 7 8 12 14 15 14 12 11 13 14 15 14 14 14 15 14 13 13 14 13 14 14 18 18 18 18 19 20 19 18 19 23 26 20 18 16 17 21 21 20 20 20
7 12 8 5 10 12 15 15 13 14 12 13 13 14 14 14 15 16 16 13 12 13 14 14 15 19 19 20 18 17 17 17 19 22 22 20 19 19 17 17 19 20 19 20 19
10 11 8 9 14 13 14 13 11 13 12 12 12 12 12 14 15 15 13 12 13 14 16 15 17 22 19 20 20 20 18 17 18 19 19 21 19 18 19 20 20 20 20 20 20
10 14 11 11 11 14 15 14 14 12 12 12 12 11 13 13 12 13 14 13 13 13 10 11 16 17 17 17 18 20 20 19 16 19 17 18 17 15 14 15 20 21 20 20 20
9 12 11 15 14 13 14 15 15 15 13 12 14 14 14 16 15 16 14 15 15 13 13 13 15 16 14 13 16 16 16 20 19 17 17 17 17 15 13 13 13 14 19 20 20
9 10 12 11 13 13 13 14 15 15 14 14 15 14 13 15 14 16 13 13 13 17 16 16 15 15 17 15 16 17 16 16 17 17 16 16 17 12 11 11 13 17 20 20 19
6 7 9 11 12 14 14 14 14 13 12 12 13 13 14 13 11 12 12 13 13 13 18 19 18 21 18 17 17 19 17 16 15 15 15 17 15 12 13 15 18 19 19 19 19